Regional Weather Roundup
Issued by NWS

Home | Current Version | Previous Version | Text Only | Print | Product List | Glossary Off
Versions: 1 2 3 4 5 6 7 8 9 10 11 12 13 14 15 16 17 18 19 20 21 22 23 24 25 26 27 28 29 30 31 32 33 34 35 36 37 38 39 40 41 42 43 44 45 46 47 48 49 50

000
ASUS43 KLMK 280710
RWRKY
KENTUCKY REGIONAL WEATHER ROUNDUP
NATIONAL WEATHER SERVICE LOUISVILLE KY
300 AM EDT MON JUL 28 2014

NOTE "FAIR" INDICATES FEW OR NO CLOUDS BELOW 12,000 FEET
WITH NO SIGNIFICANT WEATHER AND/OR OBSTRUCTIONS TO VISIBILITY.

KYZ001>023-026-027-061>063-070>075-280800-
WESTERN AND SOUTH CENTRAL KENTUCKY

CITY           SKY/WX    TMP DP  RH WIND       PRES   REMARKS
PADUCAH        CLEAR     73  58  59 N8        29.96S
HENDERSON      CLEAR     66  57  72 W6        29.94R
OWENSBORO      CLEAR     68  59  73 NW6       29.94R
HOPKINSVILLE   CLEAR     73  59  61 NW6       29.95R
BOWLING GREEN  CLEAR     74  57  55 NW7       29.93R
GLASGOW        PTCLDY    72  57  60 NW5       29.93R
$$

KYZ024-025-028>034-038-045-046-053-280800-
NORTH CENTRAL KENTUCKY

CITY           SKY/WX    TMP DP  RH WIND       PRES   REMARKS
LOUISVILLE/SDF CLEAR     70  59  68 W9        29.88S
LOUISVILLE/LOU CLEAR     71  58  63 W7        29.88S
FORT KNOX      CLEAR     65  60  82 W5        29.90S
$$

KYZ035>037-039>044-047>052-055>060-089>105-280800-
NORTHEAST KENTUCKY

CITY           SKY/WX    TMP DP  RH WIND       PRES   REMARKS
LEXINGTON      CLEAR     67  60  78 W7        29.88R
COVINGTON      CLEAR     65  59  81 W8        29.83S
FRANKFORT      CLEAR     68  59  73 W3        29.86S
$$

KYZ054-064>069-076>088-106>120-280800-
SOUTHEAST KENTUCKY

CITY           SKY/WX    TMP DP  RH WIND       PRES   REMARKS
JACKSON        PTCLDY    66  64  93 SW3       29.88S
LONDON         PTCLDY    72  61  68 NW3       29.91S
SOMERSET       MOCLDY    70  59  68 CALM      29.91S
MIDDLESBORO    MOCLDY    68  68 100 CALM      29.92S
MONTICELLO     SUNNY     69  66  90 CALM      29.93R
$$




USA.gov is the U.S. government's official web portal to all federal, state and local government web resources and services.